[[{"header":{"parameterUnit":"m.s-1","parameterCategory":1,"la1":30.2991,"la2":30.254,"lo1":-89.0895,"lo2":-89.0444,"dy":0.0017,"dx":0.0017,"nx":28,"ny":28,"refTime":"2024-07-14T21:00:00:Z","depth":0,"parameterNumber":2,"parameterNumberName":"U-component_of_WINDS"},"data":[0,0,0,0,0,0,0,0,0,0,0,0,0,0,0,0,0,0,0,0,0,0,0,0,0,0,0,0,0,0,0,0,0,0,0,0,0,0,0,0,0,0,0,0,0,0,0,0,0,0,0,0,0,0,0,0,0,0,0.8959,0.896,0,0.9044,0.9045,0.9046,0.9055,0.9054,0.9053,0.9052,0.9142,0.9145,0.9148,0,0,0,0,0,0,0,0,0,0,0,0,0,0.8806,0.8809,0.8959,0.896,0.8961,0.9044,0.9045,0.9047,0.9055,0.9054,0.9052,0.9051,0.9141,0.9145,0.9149,0,0,0,0,0,0,0,0,0,0,0,0,0,0.888,0.8809,0.8959,0.8975,0.8978,0.9044,0.9045,0.9047,0.9055,0.9054,0.9052,0.9051,0.914,0.9145,0.9149,0.9206,0,0,0.9164,0.9166,0,0,0,0,0,0,0,0,0.8876,0.8886,0.8972,0.8974,0.8977,0.9037,0.9024,0.91,0.9055,0.9026,0.9052,0.905,0.9109,0.9116,0.9135,0.9211,0.9214,0.9165,0.9168,0.917,0.9171,0,0,0,0,0,0,0,0.887,0.8882,0.8993,0.8973,0.8976,0.8979,0.8988,0.9039,0.9074,0.9028,0.9029,0.9039,0.911,0.913,0.9137,0.9216,0.9164,0.9169,0.9172,0.9174,0.9341,0.9343,0,0,0,0,0,0,0.8862,0.8878,0.899,0.8996,0.8922,0.8983,0.8993,0.9019,0.9073,0.908,0.904,0.9039,0.9123,0.9131,0.914,0.921,0.917,0.9174,0.9177,0.934,0.9341,0.9343,0,0,0,0,0,0,0.8859,0.8872,0.8987,0.8937,0.8952,0.8987,0.9017,0.9022,0.9042,0.9082,0.9088,0.9054,0.9122,0.9133,0.9189,0.9213,0.9176,0.9181,0.9338,0.934,0.9342,0.9349,0,0,0,0,0,0,0.8854,0.8871,0.8892,0.8937,0.8954,0.9034,0.9018,0.9024,0.905,0.905,0.9097,0.9104,0.9122,0.9182,0.9194,0.9219,0.9185,0.9336,0.9339,0.9342,0.9347,0.9352,0.9355,0,0,0,0,0,0.8849,0.8892,0.8893,0.8907,0.8982,0.9035,0.9045,0.9064,0.9052,0.9074,0.91,0.9102,0.9208,0.9188,0.9201,0.9228,0.9334,0.9338,0.9341,0.9345,0.9351,0.9355,0,0,0,0,0,0,0.885,0.8898,0.89,0.8959,0.8993,0.9037,0.9065,0.9069,0.9108,0.9106,0.9129,0.9139,0.9194,0.9217,0.9193,0.9285,0.927,0.9277,0.9269,0.9274,0.9278,0.9272,0.9189,0,0,0,0,0,0.8857,0.8896,0.8936,0.8984,0.9001,0.903,0.9054,0.9065,0.9102,0.9116,0.9146,0.9182,0.9223,0.925,0.929,0.935,0.9361,0.9376,0.938,0.9383,0.9388,0.9421,0.9428,0.9354,0.9354,0.9354,0,0,0.8873,0.8904,0.8927,0.8985,0.9013,0.9052,0.9042,0.9085,0.9115,0.9123,0.9177,0.92,0.9242,0.9299,0.9326,0.932,0.941,0.9387,0.9389,0.9393,0.9425,0.9432,0.9438,0.9357,0.9356,0.9356,0,0,0.8921,0.8948,0.8991,0.9018,0.9059,0.9078,0.9088,0.9131,0.9146,0.92,0.9207,0.9243,0.9314,0.9343,0.9367,0.9424,0.9428,0.9437,0.9458,0.949,0.9496,0.9501,0.9521,0.9528,0.9442,0.9442,0.9442,0,0.8935,0.8994,0.9012,0.9054,0.908,0.9088,0.9131,0.9157,0.921,0.9227,0.9219,0.9307,0.9336,0.94,0.9413,0.9433,0.9445,0.9432,0.9493,0.9499,0.9504,0.9523,0.953,0.9443,0.9443,0.9442,0.9442,0,0.9009,0.905,0.908,0.9129,0.9158,0.92,0.9225,0.9252,0.926,0.928,0.9335,0.9369,0.9416,0.9432,0.9442,0.9498,0.9492,0.9488,0.9474,0.9511,0.953,0.9537,0.9444,0.9443,0.9443,0.9443,0,0,0.9062,0.9119,0.9129,0.9151,0.9196,0.9229,0.9272,0.9316,0.9338,0.9374,0.9411,0.947,0.9466,0.9493,0.9506,0.9533,0.9576,0.9526,0.9527,0.9534,0.9639,0.9641,0.9649,0.9578,0.958,0.9581,0.9635,0,0.9114,0.919,0.9206,0.9272,0.9309,0.9317,0.9354,0.9386,0.9405,0.9441,0.9463,0.9504,0.9496,0.9512,0.954,0.9565,0.9597,0.9561,0.9613,0.9614,0.9602,0.9659,0.9662,0.9712,0.9642,0.9644,0.9645,0,0.9186,0.9222,0.929,0.9329,0.9346,0.9379,0.942,0.9454,0.9491,0.9503,0.9532,0.9542,0.9587,0.9569,0.9631,0.9606,0.9629,0.9644,0.9646,0.9652,0.9632,0.9666,0.9728,0.9735,0.9656,0.9655,0.9654,0,0.9217,0.9282,0.9331,0.935,0.9397,0.942,0.9441,0.9475,0.9501,0.9537,0.9554,0.9596,0.9618,0.9651,0.9671,0.9657,0.9732,0.9716,0.9743,0.9743,0.9759,0.9757,0.9825,0.9773,0.9773,0.9773,0.9773,0,0.9274,0.9315,0.9345,0.9376,0.9422,0.9441,0.9487,0.9508,0.9538,0.9573,0.9582,0.9615,0.964,0.9676,0.9692,0.9741,0.9752,0.9763,0.9767,0.9762,0.976,0.9777,0.9774,0.9775,0.9775,0.9774,0.9774,0,0.9316,0.9338,0.9391,0.9431,0.9442,0.9474,0.9508,0.9538,0.9557,0.9601,0.9612,0.9642,0.9685,0.9708,0.9763,0.9774,0.9828,0.983,0.9815,0.9817,0.9842,0.9839,0.9922,0.9934,0.9875,0.9875,0.9876,0,0.9351,0.9383,0.9425,0.9448,0.9469,0.9506,0.9532,0.9551,0.9577,0.962,0.9645,0.9688,0.9723,0.9791,0.9818,0.9859,0.9863,0.9889,0.9869,0.9863,0.9862,0.986,0.9863,0.9892,0.9893,0.9893,0.9894,0,0.941,0.9419,0.9454,0.9494,0.9523,0.9555,0.9587,0.9606,0.9631,0.966,0.9702,0.973,0.9784,0.9826,0.9869,0.9891,0.9897,0.9899,0.9908,0.9903,0.9893,0.9898,0.9824,0.9898,0.9897,0.9897,0.9897,0.9897,0.945,0.9478,0.9511,0.955,0.9576,0.9605,0.9634,0.9656,0.9692,0.9737,0.9747,0.9792,0.9827,0.9885,0.9908,0.9944,0.9939,0.9951,0.9954,0.9957,0.9957,0.9887,0.9952,0.9952,0.9952,0.9952,0.9952,0,0.9509,0.953,0.9566,0.9609,0.964,0.9641,0.9676,0.9702,0.9741,0.9772,0.9806,0.9855,0.9896,0.9926,0.9968,0.9991,0.9994,1.0001,1.0,1.0004,0.996,0.9948,0.9997,0.9997,0.9997,0.9997,0.9997,0.9997,0.9543,0.959,0.9603,0.9663,0.9685,0.9728,0.9748,0.9775,0.98,0.9854,0.9887,0.9906,0.9936,0.998,1.0018,1.0025,1.004,1.0047,1.0055,1.0013,1.0008,1.0003,0.9992,1.005,1.005,1.0096,1.0097,1.0097]},{"header":{"parameterUnit":"m.s-1","parameterCategory":1,"la1":30.2991,"la2":30.254,"lo1":-89.0895,"lo2":-89.0444,"dy":0.0017,"dx":0.0017,"nx":28,"ny":28,"refTime":"2024-07-14T21:00:00:Z","depth":0,"parameterNumber":3,"parameterNumberName":"V-component_of_WINDS"},"data":[0,0,0,0,0,0,0,0,0,0,0,0,0,0,0,0,0,0,0,0,0,0,0,0,0,0,0,0,0,0,0,0,0,0,0,0,0,0,0,0,0,0,0,0,0,0,0,0,0,0,0,0,0,0,0,0,0,0,4.8446,4.8445,0,4.8387,4.8386,4.8386,4.8291,4.8289,4.8287,4.8285,4.8225,4.8225,4.8225,0,0,0,0,0,0,0,0,0,0,0,0,0,4.8477,4.8477,4.8446,4.8445,4.8444,4.8387,4.8386,4.8385,4.8291,4.8289,4.8287,4.8285,4.8225,4.8225,4.8225,0,0,0,0,0,0,0,0,0,0,0,0,0,4.8445,4.8477,4.8446,4.839,4.8385,4.8387,4.8386,4.8385,4.8291,4.8289,4.8286,4.8284,4.8225,4.8225,4.8225,4.8278,0,0,4.8226,4.8226,0,0,0,0,0,0,0,0,4.8447,4.8444,4.8399,4.8394,4.8388,4.8343,4.8375,4.8349,4.8292,4.8327,4.8285,4.8282,4.8267,4.8263,4.8258,4.8275,4.8272,4.8226,4.8226,4.8226,4.8226,0,0,0,0,0,0,0,4.845,4.8446,4.8422,4.8399,4.8392,4.8368,4.8361,4.837,4.8312,4.8324,4.8316,4.8311,4.8263,4.8258,4.8256,4.8271,4.8226,4.8226,4.8226,4.8226,4.8328,4.833,0,0,0,0,0,0,4.846,4.8449,4.8424,4.8421,4.8412,4.837,4.8362,4.836,4.8312,4.8302,4.8313,4.8307,4.8259,4.8256,4.8253,4.8311,4.8226,4.8226,4.8226,4.8325,4.8328,4.8331,0,0,0,0,0,0,4.8461,4.8459,4.8427,4.8433,4.8427,4.8372,4.8371,4.8361,4.8355,4.8304,4.8293,4.8318,4.8257,4.8253,4.8272,4.8307,4.8226,4.8226,4.8322,4.8326,4.833,4.8427,0,0,0,0,0,0,4.8462,4.846,4.8479,4.8434,4.8427,4.8447,4.8374,4.8361,4.8356,4.8346,4.8306,4.8297,4.8255,4.8273,4.8272,4.8306,4.8226,4.8319,4.8324,4.8329,4.842,4.8434,4.8445,0,0,0,0,0,4.8464,4.8509,4.848,4.8478,4.845,4.8449,4.8445,4.8396,4.8359,4.8378,4.8345,4.8298,4.8304,4.8275,4.8274,4.8308,4.8316,4.8322,4.8328,4.8415,4.8431,4.8445,0,0,0,0,0,0,4.8559,4.8502,4.847,4.8501,4.8481,4.8433,4.8455,4.8415,4.8404,4.8396,4.8336,4.8327,4.8354,4.8333,4.8302,4.8356,4.8303,4.8309,4.8369,4.8384,4.8396,4.84,4.8226,0,0,0,0,0,4.8584,4.8588,4.8537,4.857,4.8562,4.8511,4.8508,4.8472,4.8448,4.8439,4.8408,4.8387,4.8383,4.8383,4.8377,4.8417,4.8406,4.844,4.8452,4.8463,4.8469,4.8488,4.8502,4.8351,4.8351,4.8351,0,0,4.8635,4.8604,4.861,4.8589,4.8568,4.8574,4.8504,4.8513,4.8516,4.8441,4.8456,4.8433,4.8405,4.8435,4.8446,4.8418,4.8508,4.8471,4.8479,4.8479,4.8495,4.851,4.8523,4.8355,4.8355,4.8354,0,0,4.873,4.8708,4.8732,4.8714,4.8684,4.865,4.8656,4.8614,4.8595,4.861,4.8554,4.8557,4.8553,4.8536,4.8526,4.8616,4.8573,4.8616,4.8681,4.87,4.8712,4.8723,4.8754,4.8766,4.8622,4.8622,4.8623,0,4.8797,4.8803,4.875,4.8762,4.8755,4.8687,4.8711,4.8696,4.8666,4.8662,4.8631,4.8625,4.8601,4.8626,4.8648,4.8643,4.8647,4.862,4.8715,4.8725,4.8733,4.8763,4.8775,4.8628,4.8627,4.8627,4.8626,0,4.8887,4.8892,4.8916,4.8889,4.8883,4.8902,4.8852,4.8853,4.8818,4.8787,4.8803,4.8773,4.8759,4.8763,4.8728,4.8782,4.8766,4.8726,4.8671,4.8754,4.8781,4.8791,4.8636,4.8634,4.8632,4.8631,0,0,4.904,4.8984,4.8993,4.898,4.8943,4.8946,4.8961,4.8948,4.895,4.8933,4.8944,4.8942,4.8905,4.8895,4.8858,4.8875,4.8947,4.8832,4.8831,4.8854,4.9005,4.9035,4.9048,4.8919,4.8921,4.8922,4.9007,0,4.9128,4.9151,4.9104,4.9138,4.9142,4.9078,4.9091,4.907,4.9042,4.9041,4.901,4.901,4.8961,4.8954,4.8968,4.8936,4.8977,4.8929,4.8928,4.8929,4.8937,4.9062,4.9094,4.9175,4.9017,4.9019,4.902,0,4.9233,4.922,4.9255,4.9215,4.9215,4.9228,4.9213,4.9213,4.9188,4.9166,4.9155,4.9111,4.9123,4.9071,4.9087,4.9056,4.9053,4.9037,4.9039,4.9037,4.8979,4.9063,4.92,4.9212,4.9036,4.9034,4.9033,0,4.9341,4.9332,4.9352,4.9343,4.9297,4.9308,4.9289,4.9261,4.9257,4.9243,4.9239,4.9228,4.9221,4.9213,4.9168,4.9134,4.919,4.9133,4.9171,4.9173,4.9185,4.9185,4.9324,4.9185,4.9185,4.9185,4.9184,0,4.9443,4.9467,4.94,4.9412,4.9437,4.9382,4.9408,4.9383,4.9359,4.9365,4.9309,4.9316,4.9256,4.9257,4.9221,4.924,4.9237,4.922,4.921,4.9225,4.9227,4.9221,4.9215,4.9188,4.9187,4.9186,4.9186,0,4.9567,4.9523,4.954,4.9496,4.9485,4.9506,4.9468,4.9477,4.9446,4.9454,4.9453,4.9404,4.9401,4.9355,4.9343,4.9319,4.9352,4.9332,4.9361,4.9354,4.9394,4.9391,4.9534,4.9549,4.9402,4.9403,4.9404,0,4.9635,4.9651,4.9609,4.9609,4.9594,4.9595,4.9589,4.9537,4.9534,4.9506,4.9519,4.9512,4.9504,4.9503,4.9466,4.9456,4.9435,4.9486,4.9433,4.9447,4.9435,4.9435,4.9436,4.9497,4.9499,4.95,4.9501,0,4.976,4.9737,4.9732,4.972,4.9715,4.9703,4.9687,4.969,4.9632,4.9632,4.9629,4.9623,4.961,4.9604,4.9588,4.9568,4.9526,4.9518,4.9526,4.9541,4.9557,4.9549,4.939,4.9515,4.9514,4.9513,4.9512,4.9511,4.9857,4.9869,4.9841,4.9837,4.982,4.9806,4.9813,4.9782,4.9779,4.9765,4.9734,4.9736,4.971,4.9683,4.9668,4.9668,4.9643,4.9655,4.9657,4.9661,4.9669,4.9558,4.9665,4.9665,4.9664,4.9664,4.9664,0,4.9979,4.9958,4.9955,4.9934,4.9931,4.9892,4.9872,4.9872,4.9875,4.9854,4.9847,4.9843,4.9837,4.98,4.9789,4.9797,4.9777,4.9796,4.9794,4.9791,4.9693,4.9687,4.9812,4.9812,4.9812,4.9812,4.9812,4.9812,5.0041,5.0059,5.0034,5.0043,5.0021,5.0023,5.0015,5.0002,4.9986,4.9984,4.9979,4.9955,4.9927,4.9914,4.9907,4.9896,4.9894,4.992,4.9903,4.9812,4.9798,4.9784,4.9778,4.992,4.992,5.0,5.0001,5.0001]}]]